Weather History for KPBI - November, 2014

Change the Weather History Date:

Sunday, November 16, 2014

  Actual Average Record
Temperature  
Mean Temperature 78 °F 73 °F  
Max Temperature 82 °F 80 °F 88 °F (1980)
Min Temperature 73 °F 65 °F 40 °F (1940)
Degree Days  
Heating Degree Days 0 0  
Month to date heating degree days 8 0  
Since 1 July heating degree days 8 1  
Cooling Degree Days 13 8  
Month to date cooling degree days 103 145  
Year to date cooling degree days 4039 3766  
Growing Degree Days 28 (Base 50)    
Moisture  
Dew Point 67 °F    
Average Humidity 73    
Maximum Humidity 82    
Minimum Humidity 64    
Precipitation  
Precipitation 0.00 in 0.17 in 3.89 in (1994)
Month to date precipitation 0.92 2.84  
Year to date precipitation 58.51 57.04  
Snow  
Snow 0.00 in - - ()
Month to date snowfall 0.0  
Since 1 July snowfall 0.0  
Since 1 September snowfall 0.0  
Snow Depth 0.00 in    
Sea Level Pressure  
Sea Level Pressure 30.12 in    
Wind  
Wind Speed 10 mph (ESE)    
Max Wind Speed 17 mph    
Max Gust Speed 20 mph    
Visibility 10 miles    
Events      
T = Trace of Precipitation, MM = Missing Value Source: NWS Daily Summary

Daily Weather History Graph

Daily Weather History Graph

Search for Another Location

Airport or City:

Trip Planner

Search our weather history database for the weather conditions in past years. The results will help you decide how hot, cold, wet, or windy it might be!

Date:

Astronomy

Nov. 16, 2014 Rise Set
Actual Time 6:40 AM EST 5:29 PM EST
Civil Twilight 6:15 AM EST 5:54 PM EST
Nautical Twilight 5:47 AM EST 6:22 PM EST
Astronomical Twilight 5:20 AM EST 6:49 PM EST
Moon 1:18 AM EST (11/16) 1:52 PM EST (11/16)
Length of Visible Light 11h 38m
Length of Day
10h 49m
Waning Crescent, 31% of the Moon is Illuminated
Nov 16
Waning Crescent
Nov 22
New
Nov 29
First Quarter
Dec 6
Full
Dec 14
Last Quarter

Hourly Weather History & Observations

Time (EST) Temp. Heat Index Dew Point Humidity Pressure Visibility Wind Dir Wind Speed Gust Speed Precip Events Conditions
12:53 AM 73.9 °F - 62.1 °F 66% 30.15 in 10.0 mi East 6.9 mph - N/A   Clear
1:53 AM 75.0 °F - 63.0 °F 66% 30.14 in 10.0 mi East 6.9 mph - N/A   Partly Cloudy
2:53 AM 73.9 °F - 62.1 °F 66% 30.14 in 10.0 mi East 8.1 mph - N/A   Partly Cloudy
3:53 AM 73.9 °F - 63.0 °F 68% 30.13 in 10.0 mi East 10.4 mph - N/A   Partly Cloudy
4:53 AM 73.9 °F - 64.0 °F 71% 30.14 in 10.0 mi East 8.1 mph - N/A   Partly Cloudy
5:53 AM 73.9 °F - 64.9 °F 73% 30.14 in 10.0 mi East 10.4 mph - N/A   Scattered Clouds
6:53 AM 73.9 °F - 66.0 °F 76% 30.16 in 10.0 mi East 10.4 mph - N/A   Scattered Clouds
7:53 AM 78.1 °F - 66.9 °F 68% 30.17 in 10.0 mi East 11.5 mph - N/A   Scattered Clouds
8:53 AM 79.0 °F - 66.9 °F 66% 30.18 in 10.0 mi ESE 16.1 mph - N/A   Mostly Cloudy
9:53 AM 81.0 °F 83.8 °F 68.0 °F 65% 30.19 in 10.0 mi ESE 16.1 mph - N/A   Scattered Clouds
10:53 AM 80.1 °F 82.9 °F 69.1 °F 69% 30.17 in 10.0 mi ESE 11.5 mph - N/A   Scattered Clouds
11:53 AM 80.1 °F 82.9 °F 69.1 °F 69% 30.14 in 10.0 mi East 13.8 mph - N/A   Mostly Cloudy
12:28 PM 81.0 °F 84.1 °F 69.1 °F 67% 30.12 in 10.0 mi ESE 12.7 mph - N/A   Mostly Cloudy
12:53 PM 81.0 °F 84.1 °F 69.1 °F 67% 30.11 in 10.0 mi ESE 12.7 mph - N/A   Mostly Cloudy
1:53 PM 81.0 °F 84.4 °F 70.0 °F 69% 30.08 in 10.0 mi East 11.5 mph - N/A   Mostly Cloudy
2:16 PM 81.0 °F 84.4 °F 70.0 °F 69% 30.08 in 10.0 mi East 10.4 mph - N/A   Mostly Cloudy
2:53 PM 80.1 °F 83.2 °F 70.0 °F 71% 30.07 in 10.0 mi ESE 13.8 mph - N/A   Scattered Clouds
3:53 PM 80.1 °F 83.2 °F 70.0 °F 71% 30.07 in 10.0 mi East 13.8 mph - N/A   Mostly Cloudy
4:53 PM 79.0 °F - 69.1 °F 72% 30.08 in 10.0 mi ESE 11.5 mph - N/A   Mostly Cloudy
5:53 PM 78.1 °F - 69.1 °F 74% 30.08 in 10.0 mi SE 9.2 mph - N/A   Scattered Clouds
6:53 PM 77.0 °F - 69.1 °F 76% 30.09 in 10.0 mi SE 4.6 mph - N/A   Scattered Clouds
7:53 PM 75.9 °F - 68.0 °F 76% 30.09 in 10.0 mi SE 6.9 mph - N/A   Partly Cloudy
8:53 PM 75.9 °F - 69.1 °F 79% 30.09 in 10.0 mi SE 8.1 mph - N/A   Partly Cloudy
9:53 PM 75.9 °F - 69.1 °F 79% 30.08 in 10.0 mi ESE 6.9 mph - N/A   Partly Cloudy
10:53 PM 75.9 °F - 70.0 °F 82% 30.07 in 10.0 mi SE 8.1 mph - N/A   Scattered Clouds
11:53 PM 78.1 °F - 71.1 °F 79% 30.05 in 10.0 mi SE 11.5 mph - N/A   Partly Cloudy